Date,TemperatureHighF,TemperatureAvgF,TemperatureLowF,DewpointHighF,DewpointAvgF,DewpointLowF,HumidityHigh,HumidityAvg,HumidityLow,PressureMaxIn,PressureMinIn,WindSpeedMaxMPH,WindSpeedAvgMPH,GustSpeedMaxMPH,PrecipitationSumIn
2013-2-1,49.8,35.2,22.5,25.3,19.4,16.3,81,53,29,29.77,29.63,10,3,18,0.00
2013-2-2,55.9,35.8,20.3,25.9,18.4,14.3,77,51,20,29.90,29.76,7,2,12,0.00
2013-2-3,51.3,36.7,23.2,23.3,16.3,10.5,65,43,19,29.85,29.51,8,2,18,0.00
2013-2-4,55.6,41.2,29.3,17.7,14.0,9.5,49,31,19,29.59,29.46,9,2,17,0.00
2013-2-5,59.9,45.0,29.8,27.1,20.4,13.4,51,36,25,29.66,29.48,7,2,13,0.00
2013-2-6,55.8,42.0,30.6,32.2,24.9,19.7,80,52,28,29.69,29.44,8,2,10,0.00
2013-2-7,47.8,34.7,23.9,30.0,21.6,14.2,84,59,31,29.76,29.63,4,1,8,0.00
2013-2-8,50.4,32.0,19.2,20.0,14.2,11.0,68,48,20,29.63,29.34,4,1,8,0.00
2013-2-9,40.3,30.4,21.4,26.9,19.7,11.9,76,62,42,29.35,29.20,4,1,9,0.00
2013-2-10,42.6,30.3,23.9,22.7,17.6,12.6,79,58,33,29.65,29.23,5,2,12,0.00
2013-2-11,32.9,24.7,16.3,18.3,15.2,9.8,74,64,49,29.66,29.57,4,1,8,0.00
2013-2-12,42.3,27.9,12.0,15.7,8.3,5.0,74,43,20,29.63,29.59,4,2,9,0.00
2013-2-13,47.8,35.4,21.4,18.9,14.1,7.5,55,39,26,29.63,29.50,9,3,17,0.00
2013-2-14,35.2,28.5,19.9,23.8,18.4,13.6,77,63,39,29.86,29.60,8,1,12,0.00
2013-2-15,42.6,27.9,15.3,23.2,15.7,9.9,79,60,27,29.86,29.79,6,2,11,0.06
2013-2-16,54.5,42.3,21.0,22.2,17.4,13.5,74,36,22,29.79,29.58,9,4,19,0.00
2013-2-17,60.8,43.3,28.9,18.4,13.7,10.2,50,30,13,29.58,29.22,8,3,18,0.00
2013-2-18,42.3,31.6,20.7,19.9,12.0,5.9,68,43,23,29.68,29.38,8,3,17,0.00
2013-2-19,42.1,29.4,19.2,17.0,12.5,6.0,58,46,30,29.68,29.42,4,1,8,0.00
2013-2-20,39.2,28.2,21.0,26.3,17.8,12.7,78,63,41,29.43,29.27,5,2,12,0.00
2013-2-21,37.6,26.1,17.4,20.9,17.4,11.8,79,68,46,29.50,29.34,4,2,6,0.17
2013-2-22,39.9,25.2,13.5,21.6,15.8,9.2,82,66,44,29.56,29.42,5,1,9,0.06
2013-2-23,44.6,28.1,12.7,25.6,17.1,7.0,78,62,39,29.45,29.26,5,1,9,0.00
2013-2-24,34.9,30.3,26.1,26.5,24.2,19.4,82,76,64,29.69,29.35,6,1,11,0.00
2013-2-25,36.1,23.8,9.3,21.6,15.3,4.9,82,68,47,29.69,29.45,4,1,8,0.31
2013-2-26,46.4,29.7,15.6,28.3,20.7,11.6,83,68,46,29.71,29.41,4,1,7,0.08
2013-2-27,39.2,26.3,15.8,17.4,13.1,8.1,73,56,32,29.81,29.71,4,1,9,0.00
2013-2-28,47.7,33.9,18.9,20.6,13.7,7.1,61,41,26,29.82,29.73,9,3,18,0.00